Private Wetterstation Wechselburg
Wetterdaten: Montag, 20.02.2012
Datum Zeit Temp. +2m Bodentemp. Temp.+5cm Temp. Wind Windchill X Diff Temp. Feuchte +2m Feuchte +5cm Sonnenschein Luftdruck Regen Wind Richtung Richtung Sonnenschein UV Taupunkt Windchill Windben
20.02.2012 00:00 0,8 C 6,2 C 0,6 C -0,3 C -2,6 C 0,0 C 82 % 85 % 0 % 1027,8 hPa 0,0 l/m 6,8 km/h (2 Bft) W-SW 247 0 min 0,0 UV-I -1,9 C -5,3 C 8,7 km/h (2 Bft)
20.02.2012 00:11 0,8 C 6,2 C 0,7 C -0,3 C -2,5 C 0,0 C 82 % 85 % 0 % 1027,8 hPa 0,0 l/m 6,9 km/h (2 Bft) N 0 0 min 0,0 UV-I -1,9 C -5,3 C 8,7 km/h (2 Bft)
20.02.2012 00:20 0,7 C 6,2 C 0,7 C -0,2 C -2,0 C 0,0 C 82 % 86 % 0 % 1027,8 hPa 0,0 l/m 6,0 km/h (2 Bft) SW 225 0 min 0,0 UV-I -2,0 C -4,3 C 6,4 km/h (2 Bft)
20.02.2012 00:25 0,7 C 6,2 C 0,7 C 0,0 C -1,4 C 0,0 C 82 % 86 % 0 % 1027,8 hPa 0,0 l/m 4,8 km/h (1 Bft) W-SW 247 0 min 0,0 UV-I -2,0 C -3,1 C 4,3 km/h (1 Bft)
20.02.2012 00:30 0,7 C 6,2 C 0,7 C 0,1 C -1,1 C 0,0 C 83 % 86 % 0 % 1027,8 hPa 0,0 l/m 4,5 km/h (1 Bft) W-SW 247 0 min 0,0 UV-I -1,8 C -1,1 C 4,7 km/h (1 Bft)
20.02.2012 00:35 0,8 C 6,2 C 0,7 C 0,2 C -1,1 C 0,0 C 83 % 86 % 0 % 1027,8 hPa 0,0 l/m 4,5 km/h (1 Bft) W-SW 247 0 min 0,0 UV-I -1,8 C -1,1 C 4,2 km/h (1 Bft)
20.02.2012 00:40 0,9 C 6,2 C 0,7 C 0,0 C -1,7 C 0,0 C 83 % 86 % 0 % 1027,7 hPa 0,0 l/m 6,1 km/h (2 Bft) W-SW 247 0 min 0,0 UV-I -1,7 C -4,0 C 10,6 km/h (2 Bft)
20.02.2012 00:45 0,8 C 6,2 C 0,8 C 0,1 C -2,4 C 0,0 C 83 % 86 % 0 % 1027,7 hPa 0,0 l/m 8,0 km/h (2 Bft) SW 225 0 min 0,0 UV-I -1,8 C -5,6 C 8,2 km/h (2 Bft)
20.02.2012 00:50 0,8 C 6,2 C 0,7 C -0,3 C -2,4 C 0,0 C 83 % 86 % 0 % 1027,7 hPa 0,0 l/m 7,7 km/h (2 Bft) W-SW 247 0 min 0,0 UV-I -1,8 C -5,5 C 9,0 km/h (2 Bft)
20.02.2012 00:55 0,8 C 6,3 C 0,6 C 0,0 C -2,7 C 0,0 C 83 % 86 % 0 % 1027,7 hPa 0,0 l/m 7,7 km/h (2 Bft) W-SW 247 0 min 0,0 UV-I -1,8 C -5,8 C 5,3 km/h (1 Bft)
20.02.2012 01:00 0,7 C 6,3 C 0,5 C -0,4 C -2,6 C 0,0 C 83 % 86 % 0 % 1028,4 hPa 0,0 l/m 7,1 km/h (2 Bft) W-SW 247 0 min 0,0 UV-I -1,8 C -5,5 C 7,7 km/h (2 Bft)
20.02.2012 01:11 0,5 C 6,3 C 0,5 C -0,5 C -2,4 C 0,0 C 83 % 87 % 0 % 1028,4 hPa 0,0 l/m 5,8 km/h (2 Bft) N 0 0 min 0,0 UV-I -2,0 C -4,7 C 7,1 km/h (2 Bft)
20.02.2012 01:20 0,5 C 6,3 C 0,4 C -0,5 C -2,4 C 0,0 C 84 % 87 % 0 % 1027,9 hPa 0,0 l/m 7,1 km/h (2 Bft) SW 225 0 min 0,0 UV-I -1,9 C -5,2 C 5,8 km/h (2 Bft)
20.02.2012 01:25 0,6 C 6,3 C 0,4 C -0,3 C -2,2 C 0,0 C 84 % 87 % 0 % 1027,9 hPa 0,0 l/m 7,1 km/h (2 Bft) SW 225 0 min 0,0 UV-I -1,8 C -5,0 C 8,2 km/h (2 Bft)
20.02.2012 01:30 0,5 C 6,3 C 0,5 C -0,4 C -2,2 C 0,0 C 84 % 87 % 0 % 1027,9 hPa 0,0 l/m 6,8 km/h (2 Bft) W-SW 247 0 min 0,0 UV-I -1,9 C -4,9 C 6,6 km/h (2 Bft)
20.02.2012 01:35 0,5 C 6,3 C 0,4 C -0,5 C -2,4 C 0,0 C 84 % 87 % 0 % 1027,9 hPa 0,0 l/m 7,1 km/h (2 Bft) W-SW 247 0 min 0,0 UV-I -1,9 C -5,2 C 7,1 km/h (2 Bft)
20.02.2012 01:40 0,6 C 6,3 C 0,5 C -0,4 C -2,3 C 0,0 C 84 % 87 % 0 % 1028,6 hPa 0,0 l/m 7,1 km/h (2 Bft) SW 225 0 min 0,0 UV-I -1,8 C -5,1 C 7,6 km/h (2 Bft)
20.02.2012 01:45 0,5 C 6,3 C 0,4 C -0,4 C -2,3 C 0,0 C 84 % 87 % 0 % 1028,6 hPa 0,0 l/m 6,9 km/h (2 Bft) SW 225 0 min 0,0 UV-I -1,9 C -5,0 C 10,1 km/h (2 Bft)
20.02.2012 01:50 0,5 C 6,3 C 0,4 C -0,4 C -2,3 C 0,0 C 84 % 87 % 0 % 1028,6 hPa 0,0 l/m 7,1 km/h (2 Bft) SW 225 0 min 0,0 UV-I -1,9 C -5,1 C 13,2 km/h (3 Bft)
20.02.2012 01:55 0,6 C 6,3 C 0,5 C -0,4 C -2,3 C 0,0 C 84 % 87 % 0 % 1028,6 hPa 0,0 l/m 7,4 km/h (2 Bft) W-SW 247 0 min 0,0 UV-I -1,8 C -5,2 C 10,1 km/h (2 Bft)
20.02.2012 02:00 0,7 C 6,3 C 0,5 C -0,3 C -2,3 C 0,0 C 84 % 87 % 0 % 1028,9 hPa 0,0 l/m 7,6 km/h (2 Bft) W-SW 247 0 min 0,0 UV-I -1,7 C -5,3 C 8,0 km/h (2 Bft)
20.02.2012 02:11 0,7 C 6,2 C 0,5 C -0,1 C -1,8 C 0,0 C 84 % 87 % 0 % 1028,9 hPa 0,0 l/m 6,3 km/h (2 Bft) N 0 0 min 0,0 UV-I -1,7 C -4,2 C 6,0 km/h (2 Bft)
20.02.2012 02:20 0,7 C 6,3 C 0,7 C -0,1 C -1,8 C 0,0 C 84 % 87 % 0 % 1028,9 hPa 0,0 l/m 6,6 km/h (2 Bft) W-SW 247 0 min 0,0 UV-I -1,7 C -4,3 C 8,7 km/h (2 Bft)
20.02.2012 02:25 0,7 C 6,3 C 0,7 C -0,1 C -1,7 C 0,0 C 84 % 87 % 0 % 1028,9 hPa 0,0 l/m 6,0 km/h (2 Bft) W-SW 247 0 min 0,0 UV-I -1,7 C -4,0 C 7,9 km/h (2 Bft)
20.02.2012 02:30 0,6 C 6,3 C 0,7 C -0,1 C -1,6 C 0,0 C 84 % 87 % 0 % 1028,9 hPa 0,0 l/m 5,8 km/h (2 Bft) SW 225 0 min 0,0 UV-I -1,8 C -3,8 C 7,6 km/h (2 Bft)
20.02.2012 02:35 0,7 C 6,2 C 0,7 C -0,1 C -1,6 C 0,0 C 84 % 87 % 0 % 1028,9 hPa 0,0 l/m 5,8 km/h (2 Bft) W-SW 247 0 min 0,0 UV-I -1,7 C -3,8 C 10,1 km/h (2 Bft)
20.02.2012 02:40 0,7 C 6,2 C 0,7 C -0,2 C -2,0 C 0,0 C 83 % 86 % 0 % 1028,5 hPa 0,0 l/m 6,8 km/h (2 Bft) SW 225 0 min 0,0 UV-I -1,8 C -4,7 C 8,9 km/h (2 Bft)
20.02.2012 02:45 0,7 C 6,2 C 0,7 C -0,2 C -2,0 C 0,0 C 83 % 86 % 0 % 1028,5 hPa 0,0 l/m 7,1 km/h (2 Bft) S-SW 202 0 min 0,0 UV-I -1,8 C -4,8 C 5,5 km/h (1 Bft)
20.02.2012 02:50 0,7 C 6,2 C 0,7 C -0,2 C -1,9 C 0,0 C 83 % 86 % 0 % 1028,5 hPa 0,0 l/m 6,8 km/h (2 Bft) W-SW 247 0 min 0,0 UV-I -1,8 C -4,5 C 9,7 km/h (2 Bft)
20.02.2012 02:55 0,7 C 6,2 C 0,7 C -0,2 C -1,9 C 0,0 C 83 % 86 % 0 % 1028,5 hPa 0,0 l/m 6,6 km/h (2 Bft) SW 225 0 min 0,0 UV-I -1,8 C -4,5 C 14,6 km/h (3 Bft)
20.02.2012 03:00 0,8 C 6,2 C 0,7 C 0,1 C -2,5 C 0,0 C 83 % 86 % 0 % 1028,5 hPa 0,0 l/m 8,2 km/h (2 Bft) W-SW 247 0 min 0,0 UV-I -1,8 C -5,7 C 11,7 km/h (2 Bft)
20.02.2012 03:11 0,7 C 6,2 C 0,6 C -0,1 C -2,7 C 0,0 C 82 % 86 % 0 % 1028,5 hPa 0,0 l/m 7,7 km/h (2 Bft) N 0 0 min 0,0 UV-I -2,0 C -5,8 C 20,0 km/h (4 Bft)
20.02.2012 03:20 0,7 C 6,2 C 0,5 C -0,3 C -2,4 C 0,0 C 82 % 86 % 0 % 1029,2 hPa 0,0 l/m 6,1 km/h (2 Bft) W-SW 247 0 min 0,0 UV-I -2,0 C -4,8 C 6,0 km/h (2 Bft)
20.02.2012 03:25 0,6 C 6,2 C 0,4 C -0,4 C -2,4 C 0,0 C 82 % 86 % 0 % 1029,2 hPa 0,0 l/m 5,8 km/h (2 Bft) W-SW 247 0 min 0,0 UV-I -2,1 C -4,7 C 8,0 km/h (2 Bft)
20.02.2012 03:30 0,5 C 6,2 C 0,4 C -0,5 C -2,6 C 0,0 C 83 % 86 % 0 % 1029,2 hPa 0,0 l/m 6,1 km/h (2 Bft) W-SW 247 0 min 0,0 UV-I -2,0 C -5,1 C 12,4 km/h (3 Bft)
20.02.2012 03:35 0,5 C 6,2 C 0,4 C -0,5 C -2,4 C 0,0 C 83 % 86 % 0 % 1029,2 hPa 0,0 l/m 6,0 km/h (2 Bft) SW 225 0 min 0,0 UV-I -2,0 C -4,8 C 4,7 km/h (1 Bft)
20.02.2012 03:40 0,5 C 6,2 C 0,4 C -0,5 C -2,6 C 0,0 C 83 % 86 % 0 % 1029,2 hPa 0,0 l/m 6,3 km/h (2 Bft) W 270 0 min 0,0 UV-I -2,0 C -5,1 C 9,8 km/h (2 Bft)
20.02.2012 03:45 0,4 C 6,2 C 0,3 C -0,6 C -2,6 C 0,0 C 83 % 86 % 0 % 1029,2 hPa 0,0 l/m 6,4 km/h (2 Bft) W-SW 247 0 min 0,0 UV-I -2,1 C -5,2 C 6,6 km/h (2 Bft)
20.02.2012 03:50 0,4 C 6,2 C 0,3 C -0,6 C -2,7 C 0,0 C 83 % 86 % 0 % 1029,2 hPa 0,0 l/m 6,9 km/h (2 Bft) SW 225 0 min 0,0 UV-I -2,1 C -5,5 C 5,5 km/h (1 Bft)
20.02.2012 03:55 0,4 C 6,2 C 0,3 C -0,7 C -2,8 C 0,0 C 83 % 86 % 0 % 1029,2 hPa 0,0 l/m 6,8 km/h (2 Bft) W-SW 247 0 min 0,0 UV-I -2,1 C -5,6 C 7,6 km/h (2 Bft)
20.02.2012 04:00 0,3 C 6,3 C 0,2 C -0,7 C -2,7 C 0,0 C 83 % 86 % 0 % 1029,0 hPa 0,0 l/m 6,0 km/h (2 Bft) SW 225 0 min 0,0 UV-I -2,2 C -5,1 C 7,6 km/h (2 Bft)
20.02.2012 04:12 0,3 C 6,2 C 0,1 C -0,6 C -2,5 C 0,0 C 83 % 87 % 0 % 1029,0 hPa 0,0 l/m 5,5 km/h (1 Bft) N 0 0 min 0,0 UV-I -2,2 C -4,7 C 5,8 km/h (2 Bft)
20.02.2012 04:20 0,3 C 6,2 C 0,1 C -0,7 C -2,6 C 0,0 C 83 % 87 % 0 % 1029,0 hPa 0,0 l/m 6,0 km/h (2 Bft) W-SW 247 0 min 0,0 UV-I -2,2 C -5,0 C 7,7 km/h (2 Bft)
20.02.2012 04:25 0,2 C 6,2 C 0,2 C -0,7 C -2,6 C 0,0 C 83 % 87 % 0 % 1029,0 hPa 0,0 l/m 6,6 km/h (2 Bft) W-SW 247 0 min 0,0 UV-I -2,3 C -5,3 C 9,7 km/h (2 Bft)
20.02.2012 04:30 0,3 C 6,2 C 0,3 C -0,6 C -2,4 C 0,0 C 83 % 86 % 0 % 1029,0 hPa 0,0 l/m 6,3 km/h (2 Bft) W-SW 247 0 min 0,0 UV-I -2,2 C -4,9 C 5,8 km/h (2 Bft)
20.02.2012 04:35 0,3 C 6,2 C 0,3 C -0,5 C -2,2 C 0,0 C 83 % 86 % 0 % 1029,0 hPa 0,0 l/m 6,0 km/h (2 Bft) W 270 0 min 0,0 UV-I -2,2 C -4,6 C 7,1 km/h (2 Bft)
20.02.2012 04:40 0,3 C 6,2 C 0,2 C -0,5 C -2,2 C 0,0 C 83 % 86 % 0 % 1029,8 hPa 0,0 l/m 6,4 km/h (2 Bft) W-SW 247 0 min 0,0 UV-I -2,2 C -4,7 C 7,1 km/h (2 Bft)
20.02.2012 04:45 0,3 C 6,2 C 0,2 C -0,5 C -2,2 C 0,0 C 83 % 86 % 0 % 1029,8 hPa 0,0 l/m 6,4 km/h (2 Bft) W-SW 247 0 min 0,0 UV-I -2,2 C -4,7 C 6,4 km/h (2 Bft)
20.02.2012 04:50 0,3 C 6,2 C 0,3 C -0,4 C -1,9 C 0,0 C 82 % 86 % 0 % 1029,8 hPa 0,0 l/m 5,8 km/h (2 Bft) W-SW 247 0 min 0,0 UV-I -2,4 C -4,1 C 5,8 km/h (2 Bft)
20.02.2012 04:55 0,3 C 6,2 C 0,3 C -0,4 C -1,9 C 0,0 C 82 % 86 % 0 % 1029,8 hPa 0,0 l/m 5,5 km/h (1 Bft) SW 225 0 min 0,0 UV-I -2,4 C -4,0 C 6,9 km/h (2 Bft)
20.02.2012 05:00 0,2 C 6,2 C 0,3 C -0,6 C -2,3 C 0,0 C 82 % 86 % 0 % 1030,1 hPa 0,0 l/m 6,0 km/h (2 Bft) W-SW 247 0 min 0,0 UV-I -2,5 C -4,7 C 7,1 km/h (2 Bft)
20.02.2012 05:11 0,3 C 6,2 C 0,3 C -0,6 C -2,4 C 0,0 C 82 % 86 % 0 % 1030,1 hPa 0,0 l/m 6,1 km/h (2 Bft) N 0 0 min 0,0 UV-I -2,4 C -4,8 C 5,6 km/h (1 Bft)
20.02.2012 05:20 0,3 C 6,2 C 0,1 C -0,7 C -2,8 C 0,0 C 82 % 85 % 0 % 1030,1 hPa 0,0 l/m 6,3 km/h (2 Bft) W-SW 247 0 min 0,0 UV-I -2,4 C -5,4 C 5,8 km/h (2 Bft)
20.02.2012 05:25 0,1 C 6,2 C 0,0 C -0,9 C -2,9 C 0,0 C 82 % 85 % 0 % 1030,1 hPa 0,0 l/m 6,0 km/h (2 Bft) W-SW 247 0 min 0,0 UV-I -2,6 C -5,4 C 7,6 km/h (2 Bft)
20.02.2012 05:30 0,1 C 6,2 C -0,1 C -0,9 C -2,8 C 0,0 C 82 % 85 % 0 % 1030,1 hPa 0,0 l/m 5,5 km/h (1 Bft) W 270 0 min 0,0 UV-I -2,6 C -5,0 C 7,6 km/h (2 Bft)
20.02.2012 05:35 0,0 C 6,2 C -0,1 C -1,0 C -3,1 C 0,0 C 82 % 85 % 0 % 1030,1 hPa 0,0 l/m 5,5 km/h (1 Bft) SW 225 0 min 0,0 UV-I -2,7 C -5,4 C 8,5 km/h (2 Bft)
20.02.2012 05:40 0,0 C 6,2 C -0,1 C -1,2 C -3,5 C 0,0 C 82 % 85 % 0 % 1030,8 hPa 0,0 l/m 6,4 km/h (2 Bft) SW 225 0 min 0,0 UV-I -2,7 C -6,2 C 8,4 km/h (2 Bft)
20.02.2012 05:45 -0,1 C 6,2 C -0,1 C -1,2 C -3,4 C 0,0 C 82 % 86 % 0 % 1030,8 hPa 0,0 l/m 6,4 km/h (2 Bft) W-SW 247 0 min 0,0 UV-I -2,8 C -6,1 C 6,1 km/h (2 Bft)
20.02.2012 05:50 -0,1 C 6,2 C -0,1 C -1,1 C -3,0 C 0,0 C 82 % 86 % 0 % 1030,8 hPa 0,0 l/m 6,1 km/h (2 Bft) S-SW 202 0 min 0,0 UV-I -2,8 C -5,5 C 8,4 km/h (2 Bft)
20.02.2012 05:55 -0,1 C 6,2 C -0,1 C -1,0 C -2,8 C 0,0 C 82 % 85 % 0 % 1030,8 hPa 0,0 l/m 6,0 km/h (2 Bft) SW 225 0 min 0,0 UV-I -2,8 C -5,2 C 6,8 km/h (2 Bft)
20.02.2012 06:00 -0,1 C 6,2 C -0,1 C -1,0 C -2,9 C 0,0 C 82 % 85 % 0 % 1031,3 hPa 0,0 l/m 6,0 km/h (2 Bft) W-SW 247 0 min 0,0 UV-I -2,8 C -5,4 C 8,5 km/h (2 Bft)
20.02.2012 06:11 -0,1 C 6,2 C -0,2 C -1,1 C -3,2 C 0,0 C 82 % 85 % 0 % 1031,3 hPa 0,0 l/m 5,6 km/h (1 Bft) N 0 0 min 0,0 UV-I -2,8 C -5,5 C 5,8 km/h (2 Bft)
20.02.2012 06:20 -0,1 C 6,2 C -0,2 C -1,0 C -2,8 C 0,0 C 82 % 85 % 0 % 1031,3 hPa 0,0 l/m 5,5 km/h (1 Bft) SW 225 0 min 0,0 UV-I -2,8 C -5,0 C 4,8 km/h (1 Bft)
20.02.2012 06:25 -0,1 C 6,2 C -0,1 C -0,9 C -2,5 C 0,0 C 83 % 86 % 0 % 1031,3 hPa 0,0 l/m 4,8 km/h (1 Bft) W-SW 247 0 min 0,0 UV-I -2,6 C -4,3 C 6,9 km/h (2 Bft)
20.02.2012 06:30 -0,3 C 6,2 C -0,3 C -1,0 C -2,4 C 0,0 C 83 % 86 % 0 % 1031,3 hPa 0,0 l/m 4,3 km/h (1 Bft) W-SW 247 0 min 0,0 UV-I -2,8 C -2,4 C 6,4 km/h (2 Bft)
20.02.2012 06:35 -0,3 C 6,2 C -0,3 C -1,2 C -3,0 C 0,0 C 83 % 86 % 0 % 1031,3 hPa 0,0 l/m 5,3 km/h (1 Bft) S-SW 202 0 min 0,0 UV-I -2,8 C -5,1 C 9,2 km/h (2 Bft)
20.02.2012 06:40 -0,4 C 6,2 C -0,4 C -1,4 C -3,3 C 0,0 C 83 % 86 % 0 % 1031,4 hPa 0,0 l/m 5,8 km/h (2 Bft) W 270 0 min 0,0 UV-I -2,9 C -5,7 C 3,9 km/h (1 Bft)
20.02.2012 06:45 -0,3 C 6,2 C -0,5 C -1,2 C -3,1 C 0,0 C 83 % 86 % 0 % 1031,4 hPa 0,0 l/m 4,5 km/h (1 Bft) S 180 0 min 0,0 UV-I -2,8 C -3,1 C 3,2 km/h (1 Bft)
20.02.2012 06:50 -0,5 C 6,2 C -0,5 C -1,2 C -2,7 C 0,0 C 83 % 86 % 0 % 1031,4 hPa 0,0 l/m 3,5 km/h (1 Bft) O-SO 112 0 min 0,0 UV-I -3,0 C -2,7 C 3,9 km/h (1 Bft)
20.02.2012 06:55 -0,5 C 6,2 C -0,5 C -1,3 C -2,8 C 0,0 C 83 % 86 % 0 % 1031,4 hPa 0,0 l/m 3,5 km/h (1 Bft) W-SW 247 0 min 0,0 UV-I -3,0 C -2,8 C 4,5 km/h (1 Bft)
20.02.2012 07:00 -0,6 C 6,2 C -0,7 C -1,4 C -2,9 C 0,0 C 84 % 86 % 0 % 1031,9 hPa 0,0 l/m 3,9 km/h (1 Bft) W-SW 247 0 min 0,0 UV-I -3,0 C -2,9 C 3,2 km/h (1 Bft)
20.02.2012 07:11 -0,5 C 6,2 C -0,5 C -1,1 C -2,2 C 0,0 C 84 % 86 % 0 % 1031,9 hPa 0,0 l/m 3,2 km/h (1 Bft) N 0 0 min 0,0 UV-I -2,9 C -2,2 C 5,5 km/h (1 Bft)
20.02.2012 07:20 -0,5 C 6,2 C -0,5 C -0,7 C -1,2 C 0,0 C 84 % 87 % 0 % 1031,9 hPa 0,0 l/m 2,1 km/h (1 Bft) W-SW 247 0 min 0,0 UV-I -2,9 C -1,2 C 0,0 km/h (0 Bft)
20.02.2012 07:25 -0,5 C 6,2 C -0,5 C -0,7 C -1,2 C 0,0 C 84 % 87 % 0 % 1031,9 hPa 0,0 l/m 1,0 km/h (0 Bft) SW 225 0 min 0,0 UV-I -2,9 C -1,2 C 2,3 km/h (1 Bft)
20.02.2012 07:30 -0,5 C 6,2 C -0,6 C -0,7 C -1,2 C 0,0 C 84 % 87 % 0 % 1031,9 hPa 0,0 l/m 1,1 km/h (1 Bft) NW 315 0 min 0,0 UV-I -2,9 C -1,2 C 2,6 km/h (1 Bft)
20.02.2012 07:35 -0,5 C 6,2 C -0,5 C -0,7 C -1,1 C 0,0 C 84 % 87 % 0 % 1031,9 hPa 0,0 l/m 1,0 km/h (0 Bft) S-SO 157 0 min 0,0 UV-I -2,9 C -1,1 C 0,0 km/h (0 Bft)
20.02.2012 07:40 -0,5 C 6,2 C -0,5 C -0,7 C -1,1 C 0,0 C 84 % 87 % 0 % 1032,6 hPa 0,0 l/m 0,6 km/h (0 Bft) NW 315 0 min 0,0 UV-I -2,9 C -1,1 C 0,0 km/h (0 Bft)
20.02.2012 07:45 -0,5 C 6,2 C -0,5 C -0,7 C -1,0 C 0,0 C 84 % 87 % 0 % 1032,6 hPa 0,0 l/m 0,6 km/h (0 Bft) NW 315 0 min 0,0 UV-I -2,9 C -1,0 C 0,0 km/h (0 Bft)
20.02.2012 07:50 -0,5 C 6,2 C -0,5 C -0,7 C -1,0 C 0,0 C 84 % 87 % 0 % 1032,6 hPa 0,0 l/m 0,6 km/h (0 Bft) SW 225 0 min 0,0 UV-I -2,9 C -1,0 C 3,5 km/h (1 Bft)
20.02.2012 07:55 -0,5 C 6,2 C -0,3 C -0,6 C -0,9 C 0,0 C 84 % 87 % 0 % 1032,6 hPa 0,0 l/m 0,6 km/h (0 Bft) O-SO 112 0 min 0,0 UV-I -2,9 C -0,9 C 0,0 km/h (0 Bft)
20.02.2012 08:00 -0,5 C 6,2 C -0,4 C -0,6 C -0,8 C 0,0 C 84 % 87 % 0 % 1032,2 hPa 0,0 l/m 2,4 km/h (1 Bft) O 90 0 min 0,0 UV-I -2,9 C -0,8 C 2,9 km/h (1 Bft)
20.02.2012 08:11 -0,5 C 6,2 C -0,4 C -0,5 C -0,6 C 0,0 C 84 % 87 % 0 % 1032,2 hPa 0,0 l/m 1,9 km/h (1 Bft) N 0 0 min 0,0 UV-I -2,9 C -0,6 C 4,7 km/h (1 Bft)
20.02.2012 08:20 -0,5 C 6,2 C -0,3 C -0,9 C -1,7 C 0,0 C 84 % 87 % 0 % 1032,4 hPa 0,0 l/m 4,0 km/h (1 Bft) W-SW 247 0 min 0,0 UV-I -2,9 C -1,7 C 6,3 km/h (2 Bft)
20.02.2012 08:25 -0,5 C 6,2 C -0,1 C -0,9 C -1,7 C 0,0 C 84 % 87 % 0 % 1032,4 hPa 0,0 l/m 4,3 km/h (1 Bft) W-SW 247 0 min 0,0 UV-I -2,9 C -1,7 C 5,8 km/h (2 Bft)
20.02.2012 08:30 -0,3 C 6,2 C -0,1 C -0,7 C -1,6 C 0,0 C 84 % 87 % 0 % 1032,4 hPa 0,0 l/m 4,3 km/h (1 Bft) W-SW 247 0 min 0,0 UV-I -2,7 C -1,6 C 5,1 km/h (1 Bft)
20.02.2012 08:35 -0,4 C 6,2 C -0,1 C -0,8 C -1,6 C 0,0 C 84 % 87 % 0 % 1032,4 hPa 0,0 l/m 4,5 km/h (1 Bft) S-SW 202 0 min 0,0 UV-I -2,8 C -1,6 C 6,3 km/h (2 Bft)
20.02.2012 08:40 -0,3 C 6,2 C -0,1 C -0,8 C -1,7 C 0,0 C 84 % 87 % 0 % 1033,2 hPa 0,0 l/m 5,0 km/h (1 Bft) SW 225 0 min 0,0 UV-I -2,7 C -3,5 C 5,5 km/h (1 Bft)
20.02.2012 08:45 -0,3 C 6,2 C -0,1 C -0,8 C -1,8 C 0,0 C 84 % 86 % 0 % 1033,2 hPa 0,0 l/m 4,8 km/h (1 Bft) W-SW 247 0 min 0,0 UV-I -2,7 C -3,5 C 10,1 km/h (2 Bft)
20.02.2012 08:50 -0,3 C 6,2 C -0,1 C -0,8 C -1,8 C 0,0 C 84 % 86 % 0 % 1033,2 hPa 0,0 l/m 4,8 km/h (1 Bft) W-SW 247 0 min 0,0 UV-I -2,7 C -3,5 C 7,1 km/h (2 Bft)
20.02.2012 08:55 -0,1 C 6,2 C 0,0 C -0,6 C -1,6 C 0,0 C 83 % 85 % 0 % 1033,2 hPa 0,0 l/m 5,6 km/h (1 Bft) W-SW 247 0 min 0,0 UV-I -2,6 C -3,7 C 9,0 km/h (2 Bft)
20.02.2012 09:00 -0,1 C 6,2 C 0,1 C -0,7 C -1,9 C 0,0 C 83 % 85 % 0 % 1032,8 hPa 0,0 l/m 7,2 km/h (2 Bft) W-SW 247 0 min 0,0 UV-I -2,6 C -4,7 C 11,7 km/h (2 Bft)
20.02.2012 09:13 0,0 C 6,2 C 0,2 C -0,6 C -1,9 C 0,0 C 82 % 84 % 0 % 1032,8 hPa 0,0 l/m 8,0 km/h (2 Bft) N 0 0 min 0,0 UV-I -2,7 C -5,0 C 8,4 km/h (2 Bft)
20.02.2012 09:20 0,1 C 6,2 C 0,4 C -0,3 C -1,1 C 0,0 C 82 % 84 % 0 % 1032,8 hPa 0,0 l/m 5,8 km/h (2 Bft) SW 225 0 min 0,0 UV-I -2,6 C -3,2 C 10,1 km/h (2 Bft)
20.02.2012 09:25 0,3 C 6,2 C 0,4 C -0,3 C -1,4 C 0,0 C 81 % 83 % 0 % 1032,8 hPa 0,0 l/m 6,4 km/h (2 Bft) W-SW 247 0 min 0,0 UV-I -2,6 C -3,8 C 7,6 km/h (2 Bft)
20.02.2012 09:30 0,1 C 6,2 C 0,3 C -0,3 C -2,3 C 0,0 C 81 % 83 % 0 % 1032,8 hPa 0,0 l/m 7,9 km/h (2 Bft) W-SW 247 0 min 0,0 UV-I -2,8 C -5,4 C 9,7 km/h (2 Bft)
20.02.2012 09:35 0,1 C 6,2 C 0,4 C -0,4 C -2,2 C 0,0 C 81 % 83 % 0 % 1032,8 hPa 0,0 l/m 8,0 km/h (2 Bft) S-SW 202 0 min 0,0 UV-I -2,8 C -5,3 C 9,8 km/h (2 Bft)
20.02.2012 09:40 0,2 C 6,2 C 0,4 C -0,3 C -1,3 C 0,0 C 81 % 84 % 0 % 1033,5 hPa 0,0 l/m 7,1 km/h (2 Bft) SW 225 0 min 0,0 UV-I -2,7 C -4,0 C 9,0 km/h (2 Bft)
20.02.2012 09:45 0,3 C 6,2 C 0,5 C 0,0 C -0,7 C 0,0 C 81 % 83 % 0 % 1033,5 hPa 0,0 l/m 5,8 km/h (2 Bft) W-SW 247 0 min 0,0 UV-I -2,6 C -2,7 C 8,4 km/h (2 Bft)
20.02.2012 09:50 0,4 C 6,2 C 0,7 C 0,2 C -0,3 C 0,0 C 81 % 83 % 0 % 1033,5 hPa 0,0 l/m 5,3 km/h (1 Bft) W 270 0 min 0,0 UV-I -2,5 C -2,1 C 5,1 km/h (1 Bft)
20.02.2012 09:55 0,4 C 6,1 C 0,7 C 0,2 C -0,2 C 0,0 C 81 % 83 % 0 % 1033,5 hPa 0,0 l/m 5,3 km/h (1 Bft) W-SW 247 0 min 0,0 UV-I -2,5 C -2,0 C 7,4 km/h (2 Bft)
20.02.2012 10:00 0,5 C 6,1 C 0,7 C 0,2 C -0,5 C 0,0 C 80 % 82 % 0 % 1034,0 hPa 0,0 l/m 6,1 km/h (2 Bft) W-SW 247 0 min 0,0 UV-I -2,5 C -2,6 C 9,2 km/h (2 Bft)
20.02.2012 10:10 0,7 C 6,1 C 0,8 C 0,2 C -0,7 C 0,0 C 80 % 82 % 0 % 1034,0 hPa 0,0 l/m 6,6 km/h (2 Bft) N 0 0 min 0,0 UV-I -2,3 C -3,1 C 11,9 km/h (2 Bft)
20.02.2012 10:20 0,7 C 6,1 C 0,8 C 0,2 C -0,8 C 0,0 C 79 % 81 % 0 % 1034,1 hPa 0,0 l/m 7,1 km/h (2 Bft) W-SW 247 0 min 0,0 UV-I -2,5 C -3,4 C 13,5 km/h (3 Bft)
20.02.2012 10:25 0,7 C 6,2 C 0,8 C 0,3 C -0,5 C 0,0 C 80 % 82 % 0 % 1034,1 hPa 0,0 l/m 6,1 km/h (2 Bft) W 270 0 min 0,0 UV-I -2,3 C -2,6 C 4,3 km/h (1 Bft)
20.02.2012 10:30 0,7 C 6,1 C 0,9 C 0,3 C -0,6 C 0,0 C 79 % 81 % 0 % 1034,1 hPa 0,0 l/m 6,3 km/h (2 Bft) SW 225 0 min 0,0 UV-I -2,5 C -2,8 C 9,8 km/h (2 Bft)
20.02.2012 10:35 0,8 C 6,2 C 0,8 C 0,3 C -0,8 C 0,0 C 79 % 81 % 0 % 1034,1 hPa 0,0 l/m 6,4 km/h (2 Bft) W-SW 247 0 min 0,0 UV-I -2,4 C -3,1 C 7,9 km/h (2 Bft)
20.02.2012 10:40 0,8 C 6,2 C 0,9 C 0,3 C -0,7 C 0,0 C 79 % 81 % 0 % 1034,1 hPa 0,0 l/m 6,6 km/h (2 Bft) W-SW 247 0 min 0,0 UV-I -2,4 C -3,1 C 4,0 km/h (1 Bft)
20.02.2012 10:45 0,9 C 6,1 C 1,1 C 0,5 C -0,2 C 0,0 C 79 % 81 % 0 % 1034,1 hPa 0,0 l/m 6,1 km/h (2 Bft) SW 225 0 min 0,0 UV-I -2,3 C -2,3 C 3,7 km/h (1 Bft)
20.02.2012 10:50 0,8 C 6,1 C 1,1 C 0,5 C -0,1 C 0,0 C 79 % 81 % 0 % 1034,1 hPa 0,0 l/m 6,0 km/h (2 Bft) SW 225 0 min 0,0 UV-I -2,4 C -2,1 C 7,7 km/h (2 Bft)
20.02.2012 10:55 0,8 C 6,1 C 1,1 C 0,4 C -0,3 C 0,0 C 78 % 81 % 0 % 1034,1 hPa 0,0 l/m 6,8 km/h (2 Bft) W-SW 247 0 min 0,0 UV-I -2,6 C -2,7 C 10,6 km/h (2 Bft)
20.02.2012 11:00 0,9 C 6,1 C 1,3 C 0,4 C -0,5 C 0,0 C 78 % 80 % 0 % 1034,1 hPa 0,0 l/m 7,4 km/h (2 Bft) SW 225 0 min 0,0 UV-I -2,5 C -3,1 C 9,8 km/h (2 Bft)
20.02.2012 11:10 1,0 C 6,1 C 1,5 C 0,6 C -0,2 C 0,0 C 78 % 80 % 0 % 1034,1 hPa 0,0 l/m 7,6 km/h (2 Bft) N 0 0 min 0,0 UV-I -2,4 C -2,8 C 8,0 km/h (2 Bft)
20.02.2012 11:20 1,1 C 6,1 C 1,5 C 0,7 C -0,2 C 0,0 C 77 % 80 % 0 % 1034,1 hPa 0,0 l/m 8,5 km/h (2 Bft) W 270 0 min 0,0 UV-I -2,5 C -3,1 C 3,5 km/h (1 Bft)
20.02.2012 11:25 1,2 C 6,1 C 1,6 C 1,1 C 0,1 C 0,0 C 77 % 79 % 0 % 1034,1 hPa 0,0 l/m 8,4 km/h (2 Bft) W-SW 247 0 min 0,0 UV-I -2,4 C -2,7 C 10,8 km/h (2 Bft)
20.02.2012 11:30 1,3 C 6,1 C 1,6 C 1,2 C 1,0 C 0,0 C 77 % 79 % 0 % 1034,1 hPa 0,0 l/m 7,2 km/h (2 Bft) W 270 0 min 0,0 UV-I -2,3 C -1,3 C 10,8 km/h (2 Bft)
20.02.2012 11:35 1,4 C 6,1 C 1,7 C 1,8 C 1,1 C 0,4 C 76 % 79 % 11 % 1034,1 hPa 0,0 l/m 8,0 km/h (2 Bft) W-SW 247 0 min 0,0 UV-I -2,4 C -1,4 C 10,8 km/h (2 Bft)
20.02.2012 11:40 1,5 C 6,1 C 1,6 C 1,7 C 0,9 C 0,2 C 76 % 78 % 5 % 1034,8 hPa 0,0 l/m 8,4 km/h (2 Bft) W-SW 247 0 min 0,0 UV-I -2,3 C -1,8 C 9,3 km/h (2 Bft)
20.02.2012 11:45 1,5 C 6,1 C 1,9 C 1,9 C 1,9 C 0,4 C 77 % 79 % 11 % 1034,8 hPa 0,0 l/m 7,2 km/h (2 Bft) SW 225 0 min 0,0 UV-I -2,1 C -0,3 C 5,0 km/h (1 Bft)
20.02.2012 11:50 1,7 C 6,1 C 2,0 C 3,9 C 3,9 C 2,2 C 76 % 78 % 58 % 1034,8 hPa 0,0 l/m 6,9 km/h (2 Bft) W 270 0 min 0,0 UV-I -2,1 C 2,2 C 6,4 km/h (2 Bft)
20.02.2012 11:55 1,9 C 6,1 C 2,0 C 4,8 C 4,8 C 2,9 C 75 % 77 % 76 % 1034,8 hPa 0,0 l/m 7,1 km/h (2 Bft) SW 225 0 min 0,0 UV-I -2,1 C 3,1 C 7,9 km/h (2 Bft)
20.02.2012 12:00 1,9 C 6,1 C 2,3 C 5,6 C 5,2 C 3,7 C 74 % 76 % 97 % 1034,8 hPa 0,0 l/m 7,9 km/h (2 Bft) S-SO 157 5 min 0,0 UV-I -2,2 C 3,4 C 13,8 km/h (3 Bft)
20.02.2012 12:05 2,1 C 6,1 C 2,4 C 5,2 C 5,2 C 3,1 C 73 % 75 % 82 % 1034,8 hPa 0,0 l/m 9,2 km/h (2 Bft) S 180 0 min 0,0 UV-I -2,2 C 3,1 C 8,9 km/h (2 Bft)
20.02.2012 12:10 2,1 C 6,1 C 2,5 C 5,6 C 4,8 C 3,5 C 72 % 75 % 92 % 1034,8 hPa 0,0 l/m 9,7 km/h (2 Bft) W-SW 247 5 min 0,0 UV-I -2,4 C 2,5 C 9,8 km/h (2 Bft)
20.02.2012 12:15 2,3 C 6,1 C 2,7 C 5,3 C 4,6 C 3,0 C 72 % 74 % 79 % 1034,8 hPa 0,0 l/m 9,2 km/h (2 Bft) O 90 0 min 0,0 UV-I -2,2 C 2,4 C 10,9 km/h (2 Bft)
20.02.2012 12:20 2,2 C 6,1 C 2,5 C 5,1 C 4,4 C 2,9 C 71 % 74 % 76 % 1034,8 hPa 0,0 l/m 8,7 km/h (2 Bft) W-SW 247 0 min 0,0 UV-I -2,5 C 2,2 C 7,7 km/h (2 Bft)
20.02.2012 12:25 2,3 C 6,1 C 2,4 C 4,3 C 4,3 C 2,0 C 70 % 73 % 53 % 1034,8 hPa 0,0 l/m 6,6 km/h (2 Bft) SW 225 0 min 0,0 UV-I -2,6 C 2,7 C 6,8 km/h (2 Bft)
20.02.2012 12:30 2,3 C 6,1 C 2,4 C 4,9 C 4,9 C 2,6 C 70 % 73 % 68 % 1034,8 hPa 0,0 l/m 5,3 km/h (1 Bft) SW 225 0 min 0,0 UV-I -2,6 C 3,9 C 4,5 km/h (1 Bft)
20.02.2012 12:35 2,5 C 6,1 C 2,7 C 5,6 C 5,6 C 3,1 C 70 % 73 % 82 % 1034,8 hPa 0,0 l/m 6,6 km/h (2 Bft) W-SW 247 0 min 0,0 UV-I -2,4 C 4,2 C 8,2 km/h (2 Bft)
20.02.2012 12:40 2,7 C 6,1 C 2,9 C 6,9 C 6,9 C 4,2 C 70 % 74 % 100 % 1034,8 hPa 0,0 l/m 6,3 km/h (2 Bft) W-SW 247 5 min 0,0 UV-I -2,2 C 5,8 C 4,7 km/h (1 Bft)
20.02.2012 12:45 2,8 C 6,1 C 2,9 C 7,6 C 7,6 C 4,8 C 70 % 73 % 100 % 1034,8 hPa 0,0 l/m 5,8 km/h (2 Bft) SW 225 5 min 0,0 UV-I -2,1 C 6,8 C 8,7 km/h (2 Bft)
20.02.2012 12:50 2,7 C 6,1 C 2,7 C 6,0 C 6,0 C 3,3 C 70 % 73 % 87 % 1034,8 hPa 0,0 l/m 7,1 km/h (2 Bft) W 270 5 min 0,0 UV-I -2,2 C 4,5 C 6,6 km/h (2 Bft)
20.02.2012 12:55 2,7 C 6,1 C 2,8 C 6,3 C 5,7 C 3,6 C 71 % 74 % 95 % 1034,8 hPa 0,0 l/m 8,2 km/h (2 Bft) W-SW 247 5 min 0,0 UV-I -2,0 C 3,9 C 10,8 km/h (2 Bft)
20.02.2012 13:00 2,8 C 6,1 C 2,8 C 6,3 C 6,3 C 3,5 C 69 % 73 % 92 % 1035,1 hPa 0,0 l/m 7,4 km/h (2 Bft) W-SW 247 5 min 0,0 UV-I -2,3 C 4,8 C 9,3 km/h (2 Bft)
20.02.2012 13:11 2,7 C 6,1 C 2,9 C 5,4 C 4,1 C 2,7 C 68 % 71 % 71 % 1035,1 hPa 0,0 l/m 7,9 km/h (2 Bft) N 0 0 min 0,0 UV-I -2,6 C 2,1 C 9,2 km/h (2 Bft)
20.02.2012 13:20 2,7 C 6,1 C 2,9 C 3,6 C 3,6 C 0,9 C 66 % 70 % 24 % 1035,1 hPa 0,0 l/m 7,2 km/h (2 Bft) W-SW 247 0 min 0,0 UV-I -3,0 C 1,7 C 9,0 km/h (2 Bft)
20.02.2012 13:25 2,7 C 6,1 C 3,1 C 3,9 C 3,9 C 1,2 C 66 % 70 % 32 % 1035,1 hPa 0,0 l/m 6,1 km/h (2 Bft) N-NO 22 0 min 0,0 UV-I -3,0 C 2,4 C 9,0 km/h (2 Bft)
20.02.2012 13:30 2,7 C 6,1 C 3,1 C 3,3 C 3,3 C 0,6 C 66 % 69 % 16 % 1035,1 hPa 0,0 l/m 6,9 km/h (2 Bft) SW 225 0 min 0,0 UV-I -3,0 C 1,5 C 14,0 km/h (3 Bft)
20.02.2012 13:35 2,7 C 6,1 C 2,8 C 3,5 C 2,6 C 0,8 C 66 % 69 % 21 % 1035,1 hPa 0,0 l/m 8,0 km/h (2 Bft) W-SW 247 0 min 0,0 UV-I -3,0 C 0,3 C 7,1 km/h (2 Bft)
20.02.2012 13:40 2,7 C 6,1 C 2,9 C 3,6 C 3,1 C 0,9 C 66 % 69 % 24 % 1034,9 hPa 0,0 l/m 8,2 km/h (2 Bft) SW 225 0 min 0,0 UV-I -3,0 C 0,8 C 7,1 km/h (2 Bft)
20.02.2012 13:45 2,9 C 6,1 C 3,0 C 5,4 C 5,4 C 2,5 C 66 % 69 % 66 % 1034,9 hPa 0,0 l/m 7,1 km/h (2 Bft) W-SW 247 0 min 0,0 UV-I -2,8 C 3,8 C 5,1 km/h (1 Bft)
20.02.2012 13:50 3,1 C 6,1 C 3,3 C 6,5 C 6,5 C 3,4 C 64 % 68 % 89 % 1034,9 hPa 0,0 l/m 6,3 km/h (2 Bft) SW 225 5 min 0,0 UV-I -3,0 C 5,4 C 10,0 km/h (2 Bft)
20.02.2012 13:55 3,2 C 6,1 C 3,2 C 6,7 C 6,7 C 3,5 C 64 % 67 % 92 % 1034,9 hPa 0,0 l/m 5,6 km/h (1 Bft) W-SW 247 5 min 0,0 UV-I -2,9 C 5,8 C 7,9 km/h (2 Bft)
20.02.2012 14:00 3,1 C 6,1 C 3,1 C 4,8 C 4,8 C 1,7 C 62 % 66 % 45 % 1034,9 hPa 0,0 l/m 6,1 km/h (2 Bft) W-SW 247 0 min 0,0 UV-I -3,5 C 3,5 C 10,6 km/h (2 Bft)
20.02.2012 14:11 3,2 C 6,1 C 3,3 C 5,2 C 5,2 C 2,0 C 63 % 66 % 53 % 1034,9 hPa 0,0 l/m 6,8 km/h (2 Bft) N 0 0 min 0,0 UV-I -3,1 C 3,7 C 11,1 km/h (2 Bft)
20.02.2012 14:20 3,1 C 6,1 C 3,3 C 5,0 C 4,0 C 1,9 C 61 % 64 % 50 % 1034,9 hPa 0,0 l/m 8,7 km/h (2 Bft) W-SW 247 0 min 0,0 UV-I -3,7 C 1,8 C 12,2 km/h (2 Bft)
20.02.2012 14:25 3,1 C 6,1 C 3,6 C 4,2 C 3,4 C 1,1 C 61 % 64 % 29 % 1034,9 hPa 0,0 l/m 7,7 km/h (2 Bft) W-SW 247 0 min 0,0 UV-I -3,7 C 1,3 C 6,6 km/h (2 Bft)
20.02.2012 14:30 3,0 C 6,1 C 3,6 C 3,2 C 3,2 C 0,2 C 60 % 63 % 5 % 1034,9 hPa 0,0 l/m 7,2 km/h (2 Bft) W-SW 247 0 min 0,0 UV-I -4,0 C 1,3 C 4,8 km/h (1 Bft)
20.02.2012 14:35 3,0 C 6,1 C 3,8 C 3,0 C 2,9 C 0,0 C 60 % 62 % 0 % 1034,9 hPa 0,0 l/m 7,4 km/h (2 Bft) W-SW 247 0 min 0,0 UV-I -4,0 C 0,8 C 5,3 km/h (1 Bft)
20.02.2012 14:40 3,0 C 6,1 C 4,5 C 3,2 C 3,2 C 0,2 C 61 % 63 % 5 % 1034,5 hPa 0,0 l/m 6,6 km/h (2 Bft) W-SW 247 0 min 0,0 UV-I -3,8 C 1,4 C 10,8 km/h (2 Bft)
20.02.2012 14:45 3,4 C 6,1 C 5,9 C 5,2 C 5,2 C 1,8 C 60 % 58 % 47 % 1034,5 hPa 0,0 l/m 5,8 km/h (2 Bft) NW 315 0 min 0,0 UV-I -3,6 C 4,0 C 7,1 km/h (2 Bft)
20.02.2012 14:50 3,5 C 6,1 C 5,5 C 5,0 C 5,0 C 1,5 C 59 % 57 % 39 % 1034,5 hPa 0,0 l/m 6,3 km/h (2 Bft) SW 225 0 min 0,0 UV-I -3,7 C 3,6 C 6,9 km/h (2 Bft)
20.02.2012 14:55 3,2 C 6,1 C 4,5 C 3,7 C 3,7 C 0,5 C 60 % 58 % 13 % 1034,5 hPa 0,0 l/m 6,9 km/h (2 Bft) S 180 0 min 0,0 UV-I -3,8 C 1,9 C 7,2 km/h (2 Bft)
20.02.2012 15:00 3,3 C 6,1 C 5,6 C 4,1 C 4,1 C 0,8 C 61 % 59 % 21 % 1034,8 hPa 0,0 l/m 6,1 km/h (2 Bft) NW 315 0 min 0,0 UV-I -3,5 C 2,7 C 0,0 km/h (0 Bft)
20.02.2012 15:12 3,9 C 6,1 C 6,1 C 6,6 C 6,6 C 2,7 C 60 % 56 % 71 % 1034,8 hPa 0,0 l/m 3,7 km/h (1 Bft) N 0 0 min 0,0 UV-I -3,1 C 6,6 C 7,9 km/h (2 Bft)
20.02.2012 15:20 3,7 C 6,1 C 6,4 C 6,2 C 5,3 C 2,5 C 59 % 54 % 66 % 1034,8 hPa 0,0 l/m 7,9 km/h (2 Bft) W-SW 247 0 min 0,0 UV-I -3,6 C 3,5 C 6,6 km/h (2 Bft)
20.02.2012 15:25 3,6 C 6,1 C 6,3 C 4,4 C 4,4 C 0,8 C 59 % 56 % 21 % 1034,8 hPa 0,0 l/m 7,4 km/h (2 Bft) SW 225 0 min 0,0 UV-I -3,6 C 2,6 C 12,7 km/h (3 Bft)
20.02.2012 15:30 3,6 C 6,1 C 6,4 C 4,7 C 4,7 C 1,1 C 59 % 54 % 29 % 1034,8 hPa 0,0 l/m 7,6 km/h (2 Bft) W 270 0 min 0,0 UV-I -3,6 C 2,9 C 13,8 km/h (3 Bft)
20.02.2012 15:35 3,6 C 6,1 C 5,5 C 5,3 C 4,8 C 1,7 C 59 % 56 % 45 % 1034,8 hPa 0,0 l/m 8,2 km/h (2 Bft) W-SW 247 0 min 0,0 UV-I -3,6 C 2,8 C 10,9 km/h (2 Bft)
20.02.2012 15:40 3,5 C 6,1 C 4,9 C 4,7 C 3,7 C 1,2 C 59 % 57 % 32 % 1034,8 hPa 0,0 l/m 7,9 km/h (2 Bft) W-SW 247 0 min 0,0 UV-I -3,7 C 1,6 C 8,4 km/h (2 Bft)
20.02.2012 15:45 3,3 C 6,1 C 4,0 C 3,1 C 2,7 C 0,0 C 59 % 58 % 0 % 1034,8 hPa 0,0 l/m 7,6 km/h (2 Bft) SW 225 0 min 0,0 UV-I -3,9 C 0,6 C 5,5 km/h (1 Bft)
20.02.2012 15:50 3,3 C 6,0 C 3,9 C 3,4 C 3,4 C 0,1 C 59 % 59 % 3 % 1034,8 hPa 0,0 l/m 6,9 km/h (2 Bft) SW 225 0 min 0,0 UV-I -3,9 C 1,6 C 7,4 km/h (2 Bft)
20.02.2012 15:55 3,2 C 6,0 C 3,6 C 3,8 C 3,8 C 0,6 C 58 % 59 % 16 % 1034,8 hPa 0,0 l/m 6,6 km/h (2 Bft) SW 225 0 min 0,0 UV-I -4,3 C 2,1 C 12,2 km/h (2 Bft)
20.02.2012 16:00 3,0 C 6,0 C 3,2 C 2,7 C 2,1 C 0,0 C 59 % 60 % 0 % 1034,2 hPa 0,0 l/m 6,8 km/h (2 Bft) SW 225 0 min 0,0 UV-I -4,2 C 0,1 C 4,8 km/h (1 Bft)
20.02.2012 16:12 2,9 C 6,0 C 2,9 C 2,6 C 2,1 C 0,0 C 61 % 63 % 0 % 1034,2 hPa 0,0 l/m 5,0 km/h (1 Bft) N 0 0 min 0,0 UV-I -3,9 C 0,8 C 6,6 km/h (2 Bft)
20.02.2012 16:20 2,7 C 6,0 C 2,7 C 2,4 C 1,7 C 0,0 C 62 % 64 % 0 % 1034,6 hPa 0,0 l/m 4,7 km/h (1 Bft) W-SW 247 0 min 0,0 UV-I -3,8 C 0,5 C 6,3 km/h (2 Bft)
20.02.2012 16:25 2,8 C 6,0 C 2,6 C 2,6 C 2,1 C 0,0 C 62 % 65 % 0 % 1034,6 hPa 0,0 l/m 4,3 km/h (1 Bft) SW 225 0 min 0,0 UV-I -3,7 C 2,1 C 6,1 km/h (2 Bft)
20.02.2012 16:30 3,0 C 6,0 C 2,5 C 3,0 C 2,9 C 0,0 C 62 % 65 % 0 % 1034,6 hPa 0,0 l/m 4,7 km/h (1 Bft) SW 225 0 min 0,0 UV-I -3,6 C 1,8 C 6,1 km/h (2 Bft)
20.02.2012 16:35 3,1 C 6,0 C 2,5 C 3,2 C 3,2 C 0,1 C 60 % 65 % 3 % 1034,6 hPa 0,0 l/m 5,0 km/h (1 Bft) W-SW 247 0 min 0,0 UV-I -3,9 C 2,0 C 7,7 km/h (2 Bft)
20.02.2012 16:40 3,1 C 6,0 C 2,4 C 3,4 C 3,4 C 0,3 C 60 % 65 % 8 % 1034,7 hPa 0,0 l/m 5,1 km/h (1 Bft) W-SW 247 0 min 0,0 UV-I -3,9 C 2,2 C 5,6 km/h (1 Bft)
20.02.2012 16:45 2,9 C 6,0 C 2,3 C 3,4 C 3,4 C 0,5 C 60 % 65 % 13 % 1034,7 hPa 0,0 l/m 4,5 km/h (1 Bft) W 270 0 min 0,0 UV-I -4,1 C 3,4 C 2,7 km/h (1 Bft)
20.02.2012 16:50 2,9 C 6,0 C 2,3 C 3,2 C 3,2 C 0,3 C 61 % 65 % 8 % 1034,7 hPa 0,0 l/m 4,3 km/h (1 Bft) W 270 0 min 0,0 UV-I -3,9 C 3,2 C 4,3 km/h (1 Bft)
20.02.2012 16:55 2,8 C 6,0 C 2,3 C 3,4 C 3,4 C 0,6 C 61 % 65 % 16 % 1034,7 hPa 0,0 l/m 4,0 km/h (1 Bft) W-SW 247 0 min 0,0 UV-I -4,0 C 3,4 C 4,5 km/h (1 Bft)
20.02.2012 17:00 2,8 C 6,0 C 2,2 C 3,6 C 3,6 C 0,8 C 61 % 66 % 21 % 1035,2 hPa 0,0 l/m 3,7 km/h (1 Bft) W-SW 247 5 min 0,0 UV-I -4,0 C 3,6 C 4,2 km/h (1 Bft)
20.02.2012 17:12 2,6 C 6,0 C 2,1 C 3,4 C 3,4 C 0,8 C 62 % 67 % 21 % 1035,2 hPa 0,0 l/m 2,3 km/h (1 Bft) N 0 12 min 0,0 UV-I -3,9 C 3,4 C 2,3 km/h (1 Bft)
20.02.2012 17:20 2,4 C 6,1 C 1,9 C 2,3 C 2,2 C 0,0 C 64 % 68 % 0 % 1034,8 hPa 0,0 l/m 0,5 km/h (0 Bft) N-NW 337 0 min 0,0 UV-I -3,7 C 2,2 C 0,0 km/h (0 Bft)
20.02.2012 17:25 2,3 C 6,1 C 1,5 C 2,1 C 1,6 C 0,0 C 64 % 69 % 0 % 1034,8 hPa 0,0 l/m 0,2 km/h (0 Bft) W-SW 247 0 min 0,0 UV-I -3,8 C 1,6 C 0,0 km/h (0 Bft)
20.02.2012 17:30 2,0 C 6,1 C 1,5 C 1,7 C 1,2 C 0,0 C 65 % 70 % 0 % 1034,8 hPa 0,0 l/m 0,2 km/h (0 Bft) S-SO 157 0 min 0,0 UV-I -3,9 C 1,2 C 0,0 km/h (0 Bft)
20.02.2012 17:35 1,9 C 6,1 C 1,1 C 1,5 C 0,8 C 0,0 C 65 % 71 % 0 % 1034,8 hPa 0,0 l/m 0,2 km/h (0 Bft) S-SO 157 0 min 0,0 UV-I -4,0 C 0,8 C 0,0 km/h (0 Bft)
20.02.2012 17:40 1,6 C 6,1 C 1,1 C 1,0 C -0,1 C 0,0 C 66 % 71 % 0 % 1034,8 hPa 0,0 l/m 0,0 km/h (0 Bft) W 270 0 min 0,0 UV-I -4,1 C -0,1 C 0,0 km/h (0 Bft)
20.02.2012 17:45 1,3 C 6,1 C 0,7 C 0,6 C -0,7 C 0,0 C 67 % 72 % 0 % 1034,8 hPa 0,0 l/m 0,0 km/h (0 Bft) N-NO 22 0 min 0,0 UV-I -4,1 C -0,7 C 0,0 km/h (0 Bft)
20.02.2012 17:50 1,1 C 6,1 C 0,5 C 0,3 C -1,2 C 0,0 C 67 % 73 % 0 % 1034,8 hPa 0,0 l/m 0,0 km/h (0 Bft) N-NO 22 0 min 0,0 UV-I -4,3 C -1,2 C 0,0 km/h (0 Bft)
20.02.2012 17:55 0,7 C 6,1 C 0,2 C 0,0 C -1,4 C 0,0 C 68 % 73 % 0 % 1034,8 hPa 0,0 l/m 0,0 km/h (0 Bft) N-NO 22 0 min 0,0 UV-I -4,5 C -1,4 C 0,0 km/h (0 Bft)
20.02.2012 18:00 0,5 C 6,1 C 0,0 C -0,3 C -1,9 C 0,0 C 69 % 74 % 0 % 1034,9 hPa 0,0 l/m 0,0 km/h (0 Bft) N-NO 22 0 min 0,0 UV-I -4,5 C -1,9 C 0,0 km/h (0 Bft)
20.02.2012 18:13 -0,1 C 6,1 C -0,3 C -1,0 C -2,7 C 0,0 C 70 % 76 % 0 % 1034,9 hPa 0,0 l/m 0,0 km/h (0 Bft) N-NO 22 0 min 0,0 UV-I -4,9 C -2,7 C 0,0 km/h (0 Bft)
20.02.2012 18:20 -0,5 C 6,1 C -0,5 C -1,3 C -3,0 C 0,0 C 72 % 76 % 0 % 1034,9 hPa 0,0 l/m 0,0 km/h (0 Bft) SW 225 0 min 0,0 UV-I -4,9 C -3,0 C 0,0 km/h (0 Bft)
20.02.2012 18:25 -0,8 C 6,1 C -0,7 C -1,6 C -3,1 C 0,0 C 73 % 78 % 0 % 1034,9 hPa 0,0 l/m 0,0 km/h (0 Bft) W-SW 247 0 min 0,0 UV-I -5,0 C -3,1 C 0,0 km/h (0 Bft)
20.02.2012 18:30 -0,9 C 6,2 C -0,8 C -1,7 C -3,2 C 0,0 C 74 % 78 % 0 % 1034,9 hPa 0,0 l/m 0,0 km/h (0 Bft) SW 225 0 min 0,0 UV-I -4,9 C -3,2 C 0,0 km/h (0 Bft)
20.02.2012 18:35 -0,9 C 6,2 C -0,9 C -1,7 C -3,3 C 0,0 C 75 % 78 % 0 % 1034,9 hPa 0,0 l/m 0,0 km/h (0 Bft) W-NW 292 0 min 0,0 UV-I -4,8 C -3,3 C 0,0 km/h (0 Bft)
20.02.2012 18:40 -1,1 C 6,2 C -1,1 C -1,9 C -3,4 C 0,0 C 75 % 79 % 0 % 1034,9 hPa 0,0 l/m 0,0 km/h (0 Bft) O-NO 67 0 min 0,0 UV-I -5,0 C -3,4 C 0,0 km/h (0 Bft)
20.02.2012 18:45 -1,3 C 6,2 C -1,3 C -2,0 C -3,4 C 0,0 C 76 % 79 % 0 % 1034,9 hPa 0,0 l/m 0,0 km/h (0 Bft) O-NO 67 0 min 0,0 UV-I -5,0 C -3,4 C 0,0 km/h (0 Bft)
20.02.2012 18:50 -1,3 C 6,2 C -1,3 C -2,0 C -3,4 C 0,0 C 76 % 79 % 0 % 1034,9 hPa 0,0 l/m 0,0 km/h (0 Bft) O-NO 67 0 min 0,0 UV-I -5,0 C -3,4 C 0,0 km/h (0 Bft)
20.02.2012 18:55 -1,6 C 6,2 C -1,5 C -2,3 C -3,7 C 0,0 C 76 % 80 % 0 % 1034,9 hPa 0,0 l/m 0,0 km/h (0 Bft) O-NO 67 0 min 0,0 UV-I -5,3 C -3,7 C 0,0 km/h (0 Bft)
20.02.2012 19:00 -1,7 C 6,2 C -1,5 C -2,5 C -4,1 C 0,0 C 76 % 80 % 0 % 1035,1 hPa 0,0 l/m 0,0 km/h (0 Bft) O-NO 67 0 min 0,0 UV-I -5,4 C -4,1 C 0,0 km/h (0 Bft)
20.02.2012 19:12 -2,1 C 6,2 C -1,7 C -2,9 C -4,4 C 0,0 C 77 % 80 % 0 % 1035,1 hPa 0,0 l/m 0,0 km/h (0 Bft) N 0 0 min 0,0 UV-I -5,6 C -4,4 C 0,0 km/h (0 Bft)
20.02.2012 19:20 -2,4 C 6,3 C -1,8 C -3,1 C -4,5 C 0,0 C 78 % 81 % 0 % 1035,5 hPa 0,0 l/m 0,0 km/h (0 Bft) W-SW 247 0 min 0,0 UV-I -5,7 C -4,5 C 0,0 km/h (0 Bft)
20.02.2012 19:25 -2,5 C 6,3 C -2,0 C -3,2 C -4,5 C 0,0 C 80 % 82 % 0 % 1035,5 hPa 0,0 l/m 0,0 km/h (0 Bft) O-NO 67 0 min 0,0 UV-I -5,5 C -4,5 C 0,0 km/h (0 Bft)
20.02.2012 19:30 -2,5 C 6,4 C -1,9 C -3,1 C -4,4 C 0,0 C 80 % 82 % 0 % 1035,5 hPa 0,0 l/m 0,0 km/h (0 Bft) NO 45 0 min 0,0 UV-I -5,5 C -4,4 C 0,0 km/h (0 Bft)
20.02.2012 19:35 -2,7 C 6,4 C -2,1 C -3,3 C -4,5 C 0,0 C 80 % 82 % 0 % 1035,5 hPa 0,0 l/m 0,0 km/h (0 Bft) W 270 0 min 0,0 UV-I -5,7 C -4,5 C 0,0 km/h (0 Bft)
20.02.2012 19:40 -2,8 C 6,4 C -2,1 C -3,4 C -4,6 C 0,0 C 80 % 82 % 0 % 1035,5 hPa 0,0 l/m 0,0 km/h (0 Bft) W-SW 247 0 min 0,0 UV-I -5,8 C -4,6 C 0,0 km/h (0 Bft)
20.02.2012 19:45 -2,7 C 6,4 C -2,1 C -3,3 C -4,5 C 0,0 C 81 % 83 % 0 % 1035,5 hPa 0,0 l/m 0,0 km/h (0 Bft) O-SO 112 0 min 0,0 UV-I -5,5 C -4,5 C 0,0 km/h (0 Bft)
20.02.2012 19:50 -2,7 C 6,4 C -2,3 C -3,3 C -4,5 C 0,0 C 82 % 83 % 0 % 1035,5 hPa 0,0 l/m 0,0 km/h (0 Bft) NO 45 0 min 0,0 UV-I -5,3 C -4,5 C 0,0 km/h (0 Bft)
20.02.2012 19:55 -2,8 C 6,4 C -2,3 C -3,4 C -4,5 C 0,0 C 82 % 83 % 0 % 1035,5 hPa 0,0 l/m 0,0 km/h (0 Bft) NO 45 0 min 0,0 UV-I -5,4 C -4,5 C 0,0 km/h (0 Bft)
20.02.2012 20:00 -2,9 C 6,4 C -2,3 C -3,5 C -4,6 C 0,0 C 82 % 84 % 0 % 1035,5 hPa 0,0 l/m 0,0 km/h (0 Bft) W-SW 247 0 min 0,0 UV-I -5,5 C -4,6 C 0,0 km/h (0 Bft)
20.02.2012 20:12 -2,9 C 6,5 C -2,3 C -3,5 C -4,6 C 0,0 C 82 % 84 % 0 % 1035,5 hPa 0,0 l/m 0,0 km/h (0 Bft) N 0 0 min 0,0 UV-I -5,5 C -4,6 C 0,0 km/h (0 Bft)
20.02.2012 20:20 -3,0 C 6,5 C -2,5 C -3,6 C -4,7 C 0,0 C 83 % 84 % 0 % 1035,6 hPa 0,0 l/m 0,0 km/h (0 Bft) O-NO 67 0 min 0,0 UV-I -5,5 C -4,7 C 0,0 km/h (0 Bft)
20.02.2012 20:25 -3,1 C 6,5 C -2,5 C -3,7 C -4,9 C 0,0 C 83 % 85 % 0 % 1035,6 hPa 0,0 l/m 0,0 km/h (0 Bft) SO 135 0 min 0,0 UV-I -5,6 C -4,9 C 0,0 km/h (0 Bft)
20.02.2012 20:29 -3,1 C 6,5 C -2,5 C -3,7 C -4,9 C 0,0 C 83 % 85 % 0 % 1035,6 hPa 0,0 l/m 0,0 km/h (0 Bft) N-NO 22 0 min 0,0 UV-I -5,6 C -4,9 C 0,0 km/h (0 Bft)
20.02.2012 20:34 -3,1 C 6,5 C -2,5 C -3,7 C -4,9 C 0,0 C 83 % 85 % 0 % 1035,6 hPa 0,0 l/m 0,0 km/h (0 Bft) N-NO 22 0 min 0,0 UV-I -5,6 C -4,9 C 0,0 km/h (0 Bft)
20.02.2012 20:39 -3,3 C 6,5 C -2,5 C -3,8 C -4,9 C 0,0 C 84 % 85 % 0 % 1035,3 hPa 0,0 l/m 0,0 km/h (0 Bft) N-NO 22 0 min 0,0 UV-I -5,6 C -4,9 C 0,0 km/h (0 Bft)
20.02.2012 20:44 -3,3 C 6,5 C -2,5 C -3,8 C -4,9 C 0,0 C 84 % 85 % 0 % 1035,3 hPa 0,0 l/m 0,0 km/h (0 Bft) O-NO 67 0 min 0,0 UV-I -5,6 C -4,9 C 0,0 km/h (0 Bft)
20.02.2012 20:49 -3,2 C 6,5 C -2,7 C -3,8 C -4,9 C 0,0 C 84 % 85 % 0 % 1035,3 hPa 0,0 l/m 0,0 km/h (0 Bft) O 90 0 min 0,0 UV-I -5,5 C -4,9 C 0,0 km/h (0 Bft)
20.02.2012 20:54 -3,1 C 6,4 C -2,7 C -3,7 C -4,8 C 0,0 C 84 % 85 % 0 % 1035,3 hPa 0,0 l/m 0,0 km/h (0 Bft) W 270 0 min 0,0 UV-I -5,4 C -4,8 C 0,0 km/h (0 Bft)
20.02.2012 20:59 -3,1 C 6,4 C -2,5 C -3,6 C -4,7 C 0,0 C 85 % 86 % 0 % 1035,3 hPa 0,0 l/m 0,2 km/h (0 Bft) W-SW 247 0 min 0,0 UV-I -5,3 C -4,7 C 0,0 km/h (0 Bft)
20.02.2012 21:00 -3,1 C 6,4 C -2,5 C -3,6 C -4,7 C 0,0 C 85 % 86 % 0 % 1035,3 hPa 0,0 l/m 0,2 km/h (0 Bft) W-SW 247 0 min 0,0 UV-I -5,3 C -4,7 C 0,0 km/h (0 Bft)
20.02.2012 21:05 -2,9 C 6,4 C -2,5 C -3,4 C -4,4 C 0,0 C 84 % 86 % 0 % 1035,3 hPa 0,0 l/m 0,2 km/h (0 Bft) W-SW 247 0 min 0,0 UV-I -5,2 C -4,4 C 0,0 km/h (0 Bft)
20.02.2012 21:17 -2,9 C 6,3 C -2,4 C -3,4 C -4,4 C 0,0 C 84 % 86 % 0 % 1035,3 hPa 0,0 l/m 0,0 km/h (0 Bft) N 0 0 min 0,0 UV-I -5,2 C -4,4 C 0,0 km/h (0 Bft)
20.02.2012 21:25 -2,7 C 6,3 C -2,1 C -3,1 C -4,0 C 0,0 C 84 % 85 % 0 % 1035,3 hPa 0,0 l/m 1,0 km/h (0 Bft) S 180 0 min 0,0 UV-I -5,0 C -4,0 C 0,0 km/h (0 Bft)
20.02.2012 21:30 -2,5 C 6,3 C -1,9 C -3,0 C -3,9 C 0,0 C 84 % 85 % 0 % 1035,3 hPa 0,0 l/m 0,8 km/h (0 Bft) S 180 0 min 0,0 UV-I -4,8 C -3,9 C 0,0 km/h (0 Bft)
20.02.2012 21:35 -2,4 C 6,3 C -1,9 C -2,9 C -3,9 C 0,0 C 83 % 85 % 0 % 1035,3 hPa 0,0 l/m 1,0 km/h (0 Bft) W-SW 247 0 min 0,0 UV-I -4,9 C -3,9 C 2,4 km/h (1 Bft)
20.02.2012 21:40 -2,3 C 6,1 C -1,8 C -2,7 C -3,6 C 0,0 C 83 % 84 % 0 % 1035,0 hPa 0,0 l/m 1,1 km/h (1 Bft) S-SW 202 0 min 0,0 UV-I -4,8 C -3,6 C 2,4 km/h (1 Bft)
20.02.2012 21:45 -2,2 C 6,1 C -1,7 C -2,6 C -3,5 C 0,0 C 83 % 83 % 0 % 1035,0 hPa 0,0 l/m 0,8 km/h (0 Bft) SO 135 0 min 0,0 UV-I -4,7 C -3,5 C 0,0 km/h (0 Bft)
20.02.2012 21:50 -2,1 C 6,1 C -1,7 C -2,6 C -3,7 C 0,0 C 83 % 83 % 0 % 1035,0 hPa 0,0 l/m 0,8 km/h (0 Bft) SW 225 0 min 0,0 UV-I -4,6 C -3,7 C 2,1 km/h (1 Bft)
20.02.2012 21:55 -2,1 C 6,1 C -1,9 C -2,6 C -3,5 C 0,0 C 82 % 83 % 0 % 1035,0 hPa 0,0 l/m 1,1 km/h (1 Bft) SO 135 0 min 0,0 UV-I -4,7 C -3,5 C 4,8 km/h (1 Bft)
20.02.2012 22:00 -2,0 C 6,1 C -1,9 C -2,5 C -3,6 C 0,0 C 82 % 83 % 0 % 1035,0 hPa 0,0 l/m 2,4 km/h (1 Bft) SO 135 0 min 0,0 UV-I -4,7 C -3,6 C 3,1 km/h (1 Bft)
20.02.2012 22:12 -1,6 C 6,1 C -1,6 C -2,3 C -3,7 C 0,0 C 80 % 83 % 0 % 1035,0 hPa 0,0 l/m 3,4 km/h (1 Bft) N 0 0 min 0,0 UV-I -4,6 C -3,7 C 4,3 km/h (1 Bft)
20.02.2012 22:20 -1,3 C 6,1 C -1,3 C -2,1 C -3,8 C 0,0 C 79 % 82 % 0 % 1035,0 hPa 0,0 l/m 4,0 km/h (1 Bft) S 180 0 min 0,0 UV-I -4,5 C -3,8 C 2,6 km/h (1 Bft)
20.02.2012 22:25 -1,3 C 6,1 C -1,3 C -1,8 C -2,9 C 0,0 C 79 % 81 % 0 % 1035,0 hPa 0,0 l/m 2,6 km/h (1 Bft) S-SW 202 0 min 0,0 UV-I -4,5 C -2,9 C 0,0 km/h (0 Bft)
20.02.2012 22:30 -1,3 C 6,1 C -1,3 C -1,8 C -2,7 C 0,0 C 79 % 81 % 0 % 1035,0 hPa 0,0 l/m 0,8 km/h (0 Bft) SO 135 0 min 0,0 UV-I -4,5 C -2,7 C 3,9 km/h (1 Bft)
20.02.2012 22:35 -1,3 C 6,1 C -1,3 C -1,8 C -2,7 C 0,0 C 79 % 81 % 0 % 1035,0 hPa 0,0 l/m 1,8 km/h (1 Bft) S 180 0 min 0,0 UV-I -4,5 C -2,7 C 3,9 km/h (1 Bft)
20.02.2012 22:40 -1,3 C 6,1 C -1,1 C -2,1 C -3,8 C 0,0 C 78 % 81 % 0 % 1035,0 hPa 0,0 l/m 3,7 km/h (1 Bft) S-SW 202 0 min 0,0 UV-I -4,6 C -3,8 C 6,6 km/h (2 Bft)
20.02.2012 22:45 -1,1 C 6,1 C -1,2 C -1,9 C -3,4 C 0,0 C 78 % 81 % 0 % 1035,0 hPa 0,0 l/m 3,5 km/h (1 Bft) O-NO 67 0 min 0,0 UV-I -4,4 C -3,4 C 1,9 km/h (1 Bft)
20.02.2012 22:50 -1,2 C 6,1 C -1,2 C -2,0 C -3,6 C 0,0 C 78 % 81 % 0 % 1035,0 hPa 0,0 l/m 3,5 km/h (1 Bft) S 180 0 min 0,0 UV-I -4,5 C -3,6 C 5,5 km/h (1 Bft)
20.02.2012 22:55 -1,1 C 6,1 C -1,2 C -1,8 C -3,1 C 0,0 C 78 % 81 % 0 % 1035,0 hPa 0,0 l/m 2,9 km/h (1 Bft) S-SW 202 0 min 0,0 UV-I -4,4 C -3,1 C 3,2 km/h (1 Bft)
20.02.2012 23:00 -1,1 C 6,1 C -1,2 C -1,6 C -2,7 C 0,0 C 78 % 81 % 0 % 1035,0 hPa 0,0 l/m 2,3 km/h (1 Bft) O-NO 67 0 min 0,0 UV-I -4,4 C -2,7 C 1,6 km/h (1 Bft)
20.02.2012 23:13 -1,2 C 6,1 C -1,1 C -1,7 C -2,8 C 0,0 C 78 % 81 % 0 % 1035,0 hPa 0,0 l/m 2,4 km/h (1 Bft) SW 225 0 min 0,0 UV-I -4,5 C -2,8 C 5,6 km/h (1 Bft)
20.02.2012 23:14 -1,1 C 6,1 C -1,1 C -2,0 C -3,8 C 0,0 C 78 % 80 % 0 % 1035,0 hPa 0,0 l/m 3,9 km/h (1 Bft) S 180 0 min 0,0 UV-I -4,4 C -3,8 C 6,1 km/h (2 Bft)
20.02.2012 23:16 -1,1 C 6,1 C -1,1 C -2,0 C -3,8 C 0,0 C 78 % 80 % 0 % 1035,0 hPa 0,0 l/m 3,9 km/h (1 Bft) S 180 0 min 0,0 UV-I -4,4 C -3,8 C 6,1 km/h (2 Bft)
20.02.2012 23:20 -1,1 C 6,1 C -1,1 C -2,0 C -3,7 C 0,0 C 77 % 80 % 0 % 1034,0 hPa 0,0 l/m 4,2 km/h (1 Bft) SO 135 0 min 0,0 UV-I -4,6 C -3,7 C 5,6 km/h (1 Bft)
20.02.2012 23:25 -1,1 C 6,1 C -1,1 C -2,0 C -3,9 C 0,0 C 77 % 80 % 0 % 1034,0 hPa 0,0 l/m 4,7 km/h (1 Bft) S 180 0 min 0,0 UV-I -4,6 C -5,8 C 4,7 km/h (1 Bft)
20.02.2012 23:30 -1,1 C 6,1 C -1,1 C -2,0 C -3,9 C 0,0 C 77 % 80 % 0 % 1034,0 hPa 0,0 l/m 4,7 km/h (1 Bft) S 180 0 min 0,0 UV-I -4,6 C -5,8 C 6,0 km/h (2 Bft)
20.02.2012 23:35 -1,1 C 6,1 C -1,1 C -2,0 C -3,8 C 0,0 C 77 % 80 % 0 % 1034,0 hPa 0,0 l/m 4,5 km/h (1 Bft) S 180 0 min 0,0 UV-I -4,6 C -3,8 C 6,8 km/h (2 Bft)
20.02.2012 23:40 -1,1 C 6,1 C -1,1 C -2,0 C -3,8 C 0,0 C 77 % 80 % 0 % 1034,0 hPa 0,0 l/m 4,7 km/h (1 Bft) S 180 0 min 0,0 UV-I -4,6 C -5,7 C 6,1 km/h (2 Bft)
20.02.2012 23:45 -1,1 C 6,1 C -1,1 C -2,0 C -3,8 C 0,0 C 77 % 80 % 0 % 1034,0 hPa 0,0 l/m 4,5 km/h (1 Bft) S-SO 157 0 min 0,0 UV-I -4,6 C -3,8 C 6,6 km/h (2 Bft)
20.02.2012 23:50 -1,1 C 6,1 C -1,1 C -2,0 C -3,7 C 0,0 C 77 % 80 % 0 % 1034,0 hPa 0,0 l/m 4,2 km/h (1 Bft) SO 135 0 min 0,0 UV-I -4,6 C -3,7 C 4,8 km/h (1 Bft)
20.02.2012 23:55 -0,9 C 6,1 C -1,1 C -1,8 C -3,7 C 0,0 C 77 % 80 % 0 % 1034,0 hPa 0,0 l/m 4,2 km/h (1 Bft) SW 225 0 min 0,0 UV-I -4,4 C -3,7 C 5,3 km/h (1 Bft)
_ Min-Zeit 20:39 15:50 20:49 20:39 20:25 00:00 15:55 15:20 00:00 00:40 - 17:40 - - - 00:00 19:40 05:40 07:20
Minimum _ -3,3 C 6,0 C -2,7 C -3,8 C -4,9 C 0,0 C 58 % 54 % 0 % 1027,7 hPa - 0,0 km/h (0 Bft) - - - 0,0 UV-I -5,8 C -6,2 C 0,0 km/h (0 Bft)
_ Max-Zeit 15:12 20:12 15:20 12:45 12:45 12:45 20:59 01:11 12:40 20:20 00:00 12:10 - - 17:12 00:00 00:40 12:45 03:11
Maximum _ 3,9 C 6,5 C 6,4 C 7,6 C 7,6 C 4,8 C 85 % 87 % 100 % 1035,6 hPa 0,0 l/m 9,7 km/h
W-SW (2 Bft)
- - 12 min 0,0 UV-I -1,7 C 6,8 C 20,0 km/h
N (4 Bft)
Durchschnitt _ 0,4 C 6,2 C 0,6 C 0,2 C -0,9 C 0,4 C 77 % 79 % 10 % 1032,9 hPa #0,0 l/m 4,7 km/h (1 Bft) W-SW - #1:02 h 0,0 UV-I -3,3 C -2,2 C 5,7 km/h (1 Bft)
2012 www.wetterstation-wechselburg.de